Winona, MN

3:38 AM CDT on October 17, 2019 (GMT -0500)
Winona Municipal-Conrad

Weather History for KONA - September, 2019

Change the Weather History Date:

Sunday, September 22, 2019

  Actual Average Record
Temperature  
Mean Temperature 64 °F -  
Max Temperature 73 °F 65 °F 95 °F (2017)
Min Temperature 55 °F 48 °F 36 °F (1974)
Degree Days  
Heating Degree Days 1    
Growing Degree Days 14 (Base 50)    
Moisture  
Dew Point 59 °F    
Average Humidity 76    
Maximum Humidity 94    
Minimum Humidity 56    
Precipitation  
Precipitation 0.03 in - - ()
Sea Level Pressure  
Sea Level Pressure 29.85 in    
Wind  
Wind Speed 4 mph (WNW)    
Max Wind Speed 10 mph    
Max Gust Speed 20 mph    
Visibility 10 miles    
Events Rain , Thunderstorm    
Averages and records for this station are not official NWS values.
T = Trace of Precipitation, MM = Missing Value Source: NWS Daily Summary

Daily Weather History Graph

Daily Weather History Graph

Search for Another Location

Airport or City:

Astronomy

Sep. 22, 2019 Rise Set
Actual Time 6:53 AM CDT 7:04 PM CDT
Civil Twilight 6:24 AM CDT 7:33 PM CDT
Nautical Twilight 5:51 AM CDT 8:07 PM CDT
Astronomical Twilight 5:16 AM CDT 8:41 PM CDT
Moon No Moon Rise 3:13 PM CDT (9/22)
Length of Visible Light 13h 08m
Length of Day
12h 10m
Last Quarter, 44% of the Moon is Illuminated
Sep 22
Last Quarter
Sep 28
New
Oct 5
First Quarter
Oct 13
Full
Oct 21
Last Quarter

Hourly Weather History & Observations

Time (CDT) Temp. Dew Point Humidity Pressure Visibility Wind Dir Wind Speed Gust Speed Precip Events Conditions
12:16 AM 73.4 °F 68.0 °F 83% 29.84 in 10.0 mi SW 8.1 mph - N/A   Mostly Cloudy
12:35 AM 73.4 °F 68.0 °F 83% 29.83 in 10.0 mi SW 6.9 mph - N/A   Mostly Cloudy
12:55 AM 73.4 °F 68.0 °F 83% 29.84 in 10.0 mi SW 8.1 mph - N/A   Overcast
1:16 AM 73.4 °F 68.0 °F 83% 29.84 in 10.0 mi Calm Calm - N/A   Overcast
1:35 AM 73.4 °F 68.0 °F 83% 29.83 in 10.0 mi SW 4.6 mph - N/A   Mostly Cloudy
1:55 AM 73.4 °F 69.8 °F 88% 29.83 in 10.0 mi WSW 4.6 mph - N/A   Mostly Cloudy
2:15 AM 73.4 °F 69.8 °F 88% 29.82 in 10.0 mi West 3.5 mph - N/A   Scattered Clouds
2:36 AM 73.4 °F 69.8 °F 88% 29.83 in 10.0 mi West 4.6 mph - N/A   Clear
2:55 AM 73.4 °F 68.0 °F 83% 29.83 in 10.0 mi West 4.6 mph - N/A   Scattered Clouds
3:15 AM 73.4 °F 68.0 °F 83% 29.82 in 10.0 mi NW 6.9 mph - N/A Rain , Thunderstorm Light Thunderstorms and Rain
3:35 AM 71.6 °F 68.0 °F 88% 29.82 in 10.0 mi Calm Calm - N/A   Mostly Cloudy
3:56 AM 71.6 °F 66.2 °F 83% 29.83 in 10.0 mi Calm Calm - N/A   Mostly Cloudy
4:15 AM 69.8 °F 64.4 °F 83% 29.82 in 10.0 mi Calm Calm - N/A   Mostly Cloudy
4:36 AM 71.6 °F 62.6 °F 73% 29.83 in 10.0 mi WNW 5.8 mph - N/A   Scattered Clouds
4:56 AM 69.8 °F 62.6 °F 78% 29.83 in 10.0 mi WNW 4.6 mph - N/A   Scattered Clouds
5:15 AM 69.8 °F 60.8 °F 73% 29.83 in 10.0 mi Calm Calm - N/A   Scattered Clouds
5:35 AM 69.8 °F 60.8 °F 73% 29.84 in 10.0 mi Calm Calm - N/A   Scattered Clouds
5:56 AM 69.8 °F 60.8 °F 73% 29.84 in 10.0 mi WNW 4.6 mph - N/A   Scattered Clouds
6:16 AM 69.8 °F 60.8 °F 73% 29.84 in 10.0 mi Calm Calm - N/A   Clear
6:35 AM 69.8 °F 62.6 °F 78% 29.83 in 10.0 mi Calm Calm - N/A   Mostly Cloudy
6:55 AM 69.8 °F 64.4 °F 83% 29.82 in 10.0 mi Calm Calm - N/A   Overcast
7:16 AM 66.2 °F 62.6 °F 88% 29.82 in 10.0 mi Calm Calm - N/A   Light Drizzle
7:35 AM 66.2 °F 62.6 °F 88% 29.82 in 10.0 mi WNW 4.6 mph - N/A   Overcast
7:56 AM 66.2 °F 62.6 °F 88% 29.82 in 10.0 mi WNW 3.5 mph - N/A   Mostly Cloudy
8:15 AM 66.2 °F 62.6 °F 88% 29.83 in 10.0 mi NW 3.5 mph - N/A   Mostly Cloudy
8:35 AM 66.2 °F 62.6 °F 88% 29.83 in 10.0 mi West 3.5 mph - N/A   Overcast
8:56 AM 66.2 °F 60.8 °F 83% 29.85 in 10.0 mi Calm Calm - N/A   Overcast
9:16 AM 66.2 °F 59.0 °F 78% 29.85 in 10.0 mi Calm Calm - N/A   Overcast
9:35 AM 68.0 °F 59.0 °F 73% 29.85 in 10.0 mi Calm Calm - N/A   Overcast
9:55 AM 68.0 °F 60.8 °F 78% 29.86 in 10.0 mi Calm Calm - N/A   Overcast
10:16 AM 69.8 °F 60.8 °F 73% 29.86 in 10.0 mi West 3.5 mph - N/A   Overcast
10:35 AM 69.8 °F 59.0 °F 68% 29.86 in 10.0 mi WNW 3.5 mph - N/A   Overcast
10:55 AM 69.8 °F 59.0 °F 68% 29.86 in 10.0 mi WNW 4.6 mph - N/A   Overcast
11:15 AM 69.8 °F 59.0 °F 68% 29.86 in 10.0 mi NW 3.5 mph - N/A   Overcast
11:36 AM 71.6 °F 60.8 °F 69% 29.85 in 10.0 mi NNE 3.5 mph - N/A   Mostly Cloudy
11:55 AM 71.6 °F 59.0 °F 64% 29.84 in 10.0 mi NNE 3.5 mph - N/A   Scattered Clouds
12:15 PM 71.6 °F 59.0 °F 64% 29.84 in 10.0 mi North 3.5 mph - N/A   Clear
12:36 PM 71.6 °F 55.4 °F 57% 29.84 in 10.0 mi WNW 6.9 mph - N/A   Clear
12:56 PM 71.6 °F 55.4 °F 57% 29.84 in 10.0 mi West 5.8 mph - N/A   Clear
1:15 PM 69.8 °F 53.6 °F 56% 29.82 in 10.0 mi WNW 3.5 mph - N/A   Clear
1:35 PM 69.8 °F 55.4 °F 60% 29.81 in 10.0 mi SW 3.5 mph - N/A   Clear
1:55 PM 69.8 °F 55.4 °F 60% - 10.0 mi Calm Calm - N/A   Clear
2:15 PM 71.6 °F 55.4 °F 57% 29.78 in 10.0 mi Calm Calm - N/A   Clear
2:36 PM 69.8 °F 53.6 °F 56% 29.80 in 10.0 mi WNW 3.5 mph - N/A   Clear
2:56 PM 69.8 °F 55.4 °F 60% 29.81 in 10.0 mi WNW 4.6 mph - N/A   Scattered Clouds
3:15 PM 69.8 °F 55.4 °F 60% 29.81 in 10.0 mi WNW 5.8 mph - N/A   Overcast
3:36 PM 69.8 °F 55.4 °F 60% 29.82 in 10.0 mi NW 9.2 mph 16.1 mph N/A   Mostly Cloudy
3:56 PM 69.8 °F 55.4 °F 60% 29.82 in 10.0 mi WNW 9.2 mph - N/A   Scattered Clouds
4:16 PM 69.8 °F 55.4 °F 60% 29.82 in 10.0 mi WNW 9.2 mph - N/A   Mostly Cloudy
4:36 PM 69.8 °F 55.4 °F 60% 29.82 in 10.0 mi WNW 6.9 mph - N/A   Overcast
4:56 PM 69.8 °F 57.2 °F 64% 29.83 in 10.0 mi WNW 8.1 mph - N/A   Overcast
5:16 PM 69.8 °F 57.2 °F 64% 29.83 in 10.0 mi NW 6.9 mph - N/A   Overcast
5:36 PM 69.8 °F 59.0 °F 68% 29.84 in 10.0 mi WNW 5.8 mph - N/A   Overcast
6:15 PM 68.0 °F 59.0 °F 73% 29.86 in 10.0 mi WNW 9.2 mph - N/A   Overcast
6:36 PM 66.2 °F 59.0 °F 78% 29.87 in 10.0 mi NW 6.9 mph - N/A Rain Light Rain
6:55 PM 62.6 °F 57.2 °F 82% 29.87 in 7.0 mi NW 5.8 mph - N/A Rain Light Rain
7:16 PM 60.8 °F 53.6 °F 77% 29.88 in 10.0 mi WNW 10.4 mph 19.6 mph 0.01 in Rain Rain
7:36 PM 59.0 °F 53.6 °F 82% 29.88 in 10.0 mi West 4.6 mph - 0.02 in Rain Light Rain
7:55 PM 59.0 °F 55.4 °F 88% 29.88 in 10.0 mi Calm Calm - 0.02 in   Light Drizzle
8:15 PM 59.0 °F 55.4 °F 88% 29.89 in 10.0 mi NW 3.5 mph - N/A   Overcast
8:35 PM 59.0 °F 55.4 °F 88% 29.89 in 10.0 mi Calm Calm - N/A   Mostly Cloudy
8:56 PM 59.0 °F 53.6 °F 82% 29.89 in 10.0 mi WNW 5.8 mph - N/A   Overcast
9:15 PM 59.0 °F 53.6 °F 82% 29.90 in 10.0 mi NW 3.5 mph - N/A   Scattered Clouds
9:35 PM 59.0 °F 53.6 °F 82% 29.91 in 10.0 mi WNW 5.8 mph - N/A   Scattered Clouds
9:55 PM 59.0 °F 53.6 °F 82% 29.91 in 10.0 mi WNW 6.9 mph - N/A   Clear
10:15 PM 59.0 °F 53.6 °F 82% 29.92 in 10.0 mi WNW 5.8 mph - N/A   Clear
10:36 PM 59.0 °F 53.6 °F 82% 29.93 in 10.0 mi WNW 9.2 mph - 0.01 in   Clear
10:56 PM 59.0 °F 53.6 °F 82% 29.92 in 10.0 mi WNW 8.1 mph - N/A   Clear
11:16 PM 55.4 °F 51.8 °F 88% 29.92 in 10.0 mi NW 5.8 mph - N/A   Clear
11:36 PM 55.4 °F 53.6 °F 94% 29.93 in 10.0 mi WNW 3.5 mph - N/A   Clear
11:56 PM 55.4 °F 53.6 °F 94% 29.93 in 10.0 mi NW 3.5 mph - N/A   Clear